Weather History for MRLB - October, 2013

Change the Weather History Date:

Tuesday, October 29, 2013

  Actual Average Record
Temperature  
Mean Temperature 82 °F -  
Max Temperature 91 °F 85 °F 93 °F (2000)
Min Temperature 73 °F 72 °F 68 °F (2012)
Cooling Degree Days 17    
Growing Degree Days 32 (Base 50)    
Moisture  
Dew Point 74 °F    
Average Humidity 74    
Maximum Humidity 94    
Minimum Humidity 48    
Precipitation  
Precipitation 0.00 in - - ()
Sea Level Pressure  
Sea Level Pressure 29.84 in    
Wind  
Wind Speed 4 mph ()    
Max Wind Speed 13 mph    
Max Gust Speed -    
Visibility 6.1 miles    
Events Fog , Rain    
Averages and records for this station are not official NWS values.
T = Trace of Precipitation, MM = Missing Value Source: Averaged Metar Reports

Daily Weather History Graph

Daily Weather History Graph

Search for Another Location

Airport or City:

Trip Planner

Search our weather history database for the weather conditions in past years. The results will help you decide how hot, cold, wet, or windy it might be!

Date:

Astronomy

Oct. 29, 2013 Rise Set
Actual Time 5:32 AM CST 5:18 PM CST
Civil Twilight 5:11 AM CST 5:40 PM CST
Nautical Twilight 4:46 AM CST 6:05 PM CST
Astronomical Twilight 4:21 AM CST 6:30 PM CST
Moon 1:15 AM CST (10/29) 1:44 PM CST (10/29)
Length of Visible Light 12h 29m
Length of Day
11h 46m
Waning Crescent, 24% of the Moon is Illuminated
Oct 29
Waning Crescent
Nov 3
New
Nov 9
First Quarter
Nov 17
Full
Nov 25
Last Quarter

Hourly Weather History & Observations

Time (CST) Temp. Heat Index Dew Point Humidity Pressure Visibility Wind Dir Wind Speed Gust Speed Precip Events Conditions
6:00 AM 75 °F - 74 °F 94% 29.85 in 0 mi Calm Calm - - Fog Heavy Fog
6:00 AM 75.2 °F - 73.4 °F 94% 29.84 in 0.2 mi Calm Calm - N/A Fog Fog
7:00 AM 75.2 °F - 73.4 °F 94% 29.86 in 0.5 mi Calm Calm - N/A Fog Fog
7:28 AM 75.2 °F - 73.4 °F 94% 29.88 in 1.6 mi SW 3.5 mph - N/A   Scattered Clouds
7:36 AM 77.0 °F - 75.2 °F 94% 29.88 in 2.5 mi North - - N/A   Scattered Clouds
8:00 AM 78.8 °F - 75.2 °F 89% 29.88 in 6.2 mi Calm Calm - N/A   Scattered Clouds
9:00 AM 83 °F - 76 °F 74% 29.91 in 12 mi South 3.5 mph - -   Partly Cloudy
9:00 AM 84.2 °F 92.3 °F 75.2 °F 74% 29.89 in 6.2 mi South 3.5 mph - N/A   Scattered Clouds
10:00 AM 87.8 °F 93.8 °F 71.6 °F 58% 29.89 in 6.2 mi East 12.7 mph - N/A   Scattered Clouds
11:00 AM 87.8 °F 93.8 °F 71.6 °F 58% 29.87 in 6.2 mi East 8.1 mph - N/A   Mostly Cloudy
12:00 PM 89 °F - 72 °F 48% 29.86 in 12 mi ENE 8.1 mph - -   Partly Cloudy
12:00 PM 89.6 °F 96.2 °F 71.6 °F 55% 29.84 in 6.2 mi ENE 8.1 mph - N/A   Scattered Clouds
1:00 PM 89.6 °F 96.2 °F 71.6 °F 55% 29.80 in 6.2 mi East 9.2 mph - N/A   Scattered Clouds
2:00 PM 91.4 °F 100.1 °F 73.4 °F 55% 29.77 in 6.2 mi East 11.5 mph - N/A   Mostly Cloudy
3:00 PM 89 °F - 72 °F 49% 29.78 in 12 mi SE 6.9 mph - -   Overcast
3:00 PM 89.6 °F 98.2 °F 73.4 °F 59% 29.77 in 6.2 mi SE 6.9 mph - N/A   Scattered Clouds
4:00 PM 87.8 °F 97.6 °F 75.2 °F 66% 29.77 in 6.2 mi SSE 3.5 mph - N/A   Scattered Clouds
5:00 PM 84.2 °F 94.1 °F 77.0 °F 79% 29.79 in 6.2 mi WNW 5.8 mph - N/A Rain Light Rain
6:00 PM 82 °F - 76 °F 79% 29.83 in 12 mi WNW 4.6 mph - -   Partly Cloudy
6:00 PM 82.4 °F 90.9 °F 77.0 °F 84% 29.82 in 6.2 mi WNW 4.6 mph - N/A   Mostly Cloudy
7:00 PM 82.4 °F 90.9 °F 77.0 °F 84% 29.86 in 6.2 mi WNW 3.5 mph - N/A   Mostly Cloudy
8:00 PM 78.8 °F - 77.0 °F 94% 29.88 in 6.2 mi SSE 3.5 mph - N/A   Mostly Cloudy